Preview of NWS' New Version of Forecast
This preview is not operational and should not be used for support decisions.

Regional Weather Roundup (RWR)

Issued by National Weather Service (NWS)

                            
000
ASUS42 KTBW 231017
RWRFL 
FLORIDA REGIONAL WEATHER ROUNDUP
NATIONAL WEATHER SERVICE TAMPA BAY RUSKIN FL
600 AM EDT MON SEP 23 2019

NOTE: "FAIR" INDICATES FEW OR NO CLOUDS BELOW 12,000 FEET WITH NO
SIGNIFICANT WEATHER AND/OR OBSTRUCTIONS TO VISIBILITY.

FLZ001>010-012>015-112-114-115-231100-
PANHANDLE FLORIDA
  
CITY           SKY/WX    TMP DP  RH WIND       PRES   REMARKS
PENSACOLA      MOCLDY    73  69  87 N8        30.06R                  
PENSACOLA NAS  FAIR      68  68 100 N5        30.06R                  
MILTON NAS     FAIR      66  64  93 N5        30.07S                  
CRESTVIEW      FAIR      62  59  90 CALM      30.09R                  
DUKE FIELD     FAIR      62  62 100 N3        30.07R                  
MARY ESTHER    CLEAR     67  65  91 N5        30.05R                  
PANAMA CITY    FAIR      69  66  90 N6        30.06S                  
TYNDALL AFB    PTCLDY    71  67  85 NE5       30.06R                  
APALACHICOLA   MOCLDY    70  67  90 NE5       30.04S                  

STATION/POSITION SKY/WX   TEMP    WIND        PRES    WAVE   SWELL
                          AIR SEA DIR/SP/G            HT/PER HT/PER
                          (F)     (DEG/KT/KT) (MB)    (FT/S) (FT/S)
30.1N   87.6W              81 83  110/  6/  8 1017.6R   3/ 6   3/ 6
29.2N   88.2W              81      90/  6/ 10 1017.2R   4/ 8   3/ 8
28.8N   86.0W                 83   90/  6/ 10 1016.9R   2/ 6   2/ 6
PANAMA CITY BEAC           73 84   40/  6/ 10 1018.4R
TOWER C                    80     140/  6/  9 1017.9R
28.5N   84.5W              80      70/ 10/ 14 1017.4R   4/ 6   3/ 6

$$
FLZ011-016>038-118-127-128-134-139-239-231100-
NORTH FLORIDA
  
CITY           SKY/WX    TMP DP  RH WIND       PRES   REMARKS
MARIANNA       FAIR      66  64  93 CALM      30.08R                  
TALLAHASSEE    MOCLDY    68  65  90 CALM      30.07S                  
PERRY          FAIR      65  64  97 CALM      30.08S                  
LIVE OAK       CLEAR     63  63 100 CALM      30.07S                  
CROSS CITY       N/A     64  63  96 CALM      30.07R                  
LAKE CITY      FAIR      64  63  94 CALM      30.08R                  
GAINESVILLE    CLOUDY    68  66  93 NW3       30.08S                  
WILLISTON      CLOUDY    68  66  94 N3        30.06R                  
PALATKA        CLOUDY    64  64 100 W3        30.06S                  
MAYPORT NAS    FAIR      76  65  68 NE7       30.06R                  
JACKSONVILLE   FAIR      65  63  93 CALM      30.05S                  
JAX NAS        FAIR      73  67  81 NW3       30.06S                  
JAX CECIL      FAIR      66  64  94 CALM      30.06S                  
FERNANDINA BEA FAIR      67  65  92 CALM      30.06S                  
ST AUGUSTINE   FAIR     N/A N/A N/A NE7       30.06S                  
PALM COAST     CLEAR     66  64  94 CALM      30.04R                  

STATION/POSITION SKY/WX   TEMP    WIND        PRES    WAVE   SWELL
                          AIR SEA DIR/SP/G            HT/PER HT/PER
                          (F)     (DEG/KT/KT) (MB)    (FT/S) (FT/S)
SHELL POINT      NOT AVBL
KEATON BEACH               67      50/  5/  6 1018.3R
CEDAR KEY                  71      20/  5/  6 1017.8R
FERNANDINA                 78 80   90/  1/  2 1018.6R
30.7N   81.3W                 81                N/A     4/ 9   2/14
MAYPORT                    78 80   50/  5/  6 1018.1S
31.4N   80.9W              79 81  140/  2/  6 1017.9R   3/14   3/14
ST AUGUSTINE               79 80   40/ 10/ 11 1017.6S

$$
FLZ040-043>046-052-053-057-058-063-144-231100-
INTERIOR CENTRAL FLORIDA
  
CITY           SKY/WX    TMP DP  RH WIND       PRES   REMARKS
OCALA          CLOUDY    68  66  93 CALM      30.06S                  
LEESBURG       FAIR      70  66  87 N6        30.04S                  
SANFORD        FAIR      70  65  84 N6        30.02S                  
ORLANDO EXEC   FAIR      72  66  81 N7        30.02S                  
ORLANDO INTL   FAIR      67  65  93 N7        30.02S                  
KISSIMMEE      FAIR      70  67  90 N3        30.03R                  
WINTER HAVEN   FAIR      71  66  84 NE5       30.03R                  
LAKELAND       CLEAR     66  64  94 CALM      30.02                   
BARTOW           N/A     70  66  88 N5        30.01R                  
SEBRING        FAIR      67  65  93 N5        30.00S                  
OKEECHOBEE       N/A     64  64 100 CALM      29.98S                  

$$
FLZ041-047-054-059-064-141-147-231100-
EAST CENTRAL FLORIDA
  
CITY           SKY/WX    TMP DP  RH WIND       PRES   REMARKS
DAYTONA BEACH  FAIR      71  62  73 CALM      30.03S                  
DELAND         FAIR      64  63  94 NW3       30.03S                  
JFK SPACE CTR  CLOUDY    75  68  79 E5        30.00S                  
CAPE CANAVERAL MOCLDY    77  66  68 E8        29.99R                  
PATRICK AFB    FAIR      78  66  65 E14       29.99S                  
MELBOURNE      CLOUDY    79  65  62 E12       29.99S                  
VERO BEACH     MOCLDY    78  65  63 NE9G20    29.98S                  
FT PIERCE      CLOUDY    79  66  64 E10       29.98R                  
STUART         FAIR      77  61  57 E9        29.99R                  

STATION/POSITION SKY/WX   TEMP    WIND        PRES    WAVE   SWELL
                          AIR SEA DIR/SP/G            HT/PER HT/PER
                          (F)     (DEG/KT/KT) (MB)    (FT/S) (FT/S)
28.5N   80.2W              80 82   70/ 16/ 19 1016.4R   7/ 8   5/ 8
28.9N   78.5W              78 80   60/ 14/ 16 1016.6R   8/12   7/12
TRIDENT PIER               78 81   50/  8/ 12 1017.1S
28.4N   80.5W                 81                N/A     4/13   2/13
27.5N   80.2W                 82                N/A     5/13   2/13

$$
FLZ050-056-061-142-242-148-248-149-249-151-251-155-255-
160-260-231100-
WEST CENTRAL FLORIDA
  
CITY           SKY/WX    TMP DP  RH WIND       PRES   REMARKS
CRYSTAL RIVER  MOCLDY    68  64  88 CALM      30.05R                  
INVERNESS      FAIR      64  64 100 CALM      30.05S FOG              
BROOKSVILLE    FAIR      64  62  93 CALM      30.04S                  
CLEARWATER AIR FAIR      70  64  83 CALM      30.02R                  
ST PETE CLEARW FAIR      75  67  76 NE7       30.02R                  
TAMPA INTL     FAIR      71  66  84 NE3       30.02S                  
TAMPA EXEC     FAIR      64  64 100 CALM      30.03R                  
PLANT CITY     FAIR      66  66 100 N3        30.04S                  
PETER O KNIGHT CLOUDY    70  70 100 NE6       30.02R                  
ST PETERSBURG  FAIR      76  69  79 NE15      30.00R                  
SARASOTA       FAIR      71  66  84 NE3       29.99R                  
VENICE         MOCLDY    70  68  94 NE7       30.00S                  

STATION/POSITION SKY/WX   TEMP    WIND        PRES    WAVE   SWELL
                          AIR SEA DIR/SP/G            HT/PER HT/PER
                          (F)     (DEG/KT/KT) (MB)    (FT/S) (FT/S)
27.3N   84.2W                 84                N/A     5/ 6
CLEARWATER BEACH           73 83   30/  5/ 10 1016.7R
MIDDLE TAMPA BAY           76      70/ 14/ 16 1016.2S
VENICE                     70 84   40/  3/  5 1015.8R

$$
FLZ066-069-070-075>078-162-262-165-265-231100-
SOUTHWEST FLORIDA AND KEYS
  
CITY           SKY/WX    TMP DP  RH WIND       PRES   REMARKS
PUNTA GORDA    FAIR      66  66 100 NE6       30.00S                  
FT MYERS       FAIR      71  65  81 NE7       29.97S                  
SOUTHWEST INTL FAIR      69  66  90 NE8       29.98S                  
NAPLES         FAIR      73  68  84 NE9       29.96S                  
MARCO ISLAND   FAIR      71  67  87 NE8       29.97S                  
IMMOKALEE        N/A     68  66  94 N5        29.96S                  
MARATHON       CLOUDY    79  74  84 NE16      29.91R                  
KEY WEST NAS   CLOUDY    80  73  79 NE16      29.91S                  
KEY WEST INTL  CLOUDY    79  73  82 NE13G21   29.92R                  

STATION/POSITION SKY/WX   TEMP    WIND        PRES    WAVE   SWELL
                          AIR SEA DIR/SP/G            HT/PER HT/PER
                          (F)     (DEG/KT/KT) (MB)    (FT/S) (FT/S)
NAPLES                     74 82   50/  5/  8 1014.6R
26.0N   85.6W              83 85   70/ 14/ 21 1014.6S   5/ 6
DRY TORTUGAS               81      60/ 22/ 25 1013.3R
SAND KEY                   79      50/ 20/ 25 1011.3R
SOMBRERO KEY               80      40/ 20/ 24   N/A
LONG KEY                   80                 1011.6S

$$
FLZ067-068-071>074-168-172>174-231100-
SOUTHEAST FLORIDA 
  
CITY           SKY/WX    TMP DP  RH WIND       PRES   REMARKS
W PALM BEACH   FAIR      78  63  59 NE12      29.97R                  
FT LAUDER-EXEC FAIR      77  67  71 NE6       29.95R                  
FT LAUDERDALE  FAIR      78  68  71 NE10      29.94S                  
POMPANO BEACH  MOCLDY    80  66  62 NE12      29.95S                  
PEMBROKE PINES FAIR      79  67  66 NE10      29.96S                  
OPA LOCKA      FAIR      79  69  71 NE8       29.95S                  
MIAMI          FAIR      79  67  66 NE6       29.95R                  
WEST KENDALL   FAIR      76  70  82 NE6       29.94R                  
HOMESTEAD      FAIR      78  72  83 NE10      29.92                   

STATION/POSITION SKY/WX   TEMP    WIND        PRES    WAVE   SWELL
                          AIR SEA DIR/SP/G            HT/PER HT/PER
                          (F)     (DEG/KT/KT) (MB)    (FT/S) (FT/S)
VIRGINIA KEY               80 82   30/  8/ 12 1013.4R
LAKE WORTH                 79 81   50/ 14/ 17 1015.7R
FOWEY ROCKS                80 83   50/ 19/ 21 1013.8R
SETTLEMENT POINT           78      50/ 15/ 17 1014.6R

$$